SEY49 FSIA-FIMP

Flight info

Callsign SEY49
Flight time N/A
Altitude 41000
Route NESID DCT ALRAN/N0480F400 UT400 DUNRI DCT IMKOV
Aircraft B789/H-SDE1E2E3FGHIJ2J3J4J5M1RWXY/LB1D1

Departure

Time 2026-04-16 10:27
Airport Seychelles International Airport (FSIA)

Arrival

Time N/A
Airport Sir Seewoosagur Ramgoolam International Airport (FIMP)
Time Latitude Longitude Altitude Speed Heading
2026-04-16 09:51 -4.67079 55.51227 28 ft 0 kts 215°
2026-04-16 09:54 -4.67078 55.51227 26 ft 0 kts 215°
2026-04-16 10:14 -4.67065 55.51236 31 ft 4 kts 207°
2026-04-16 10:14 -4.67041 55.51244 31 ft 4 kts 184°
2026-04-16 10:14 -4.67018 55.51241 31 ft 4 kts 151°
2026-04-16 10:15 -4.67002 55.51228 31 ft 1 kts 125°
2026-04-16 10:15 -4.67001 55.51227 31 ft 0 kts 125°
2026-04-16 10:19 -4.67002 55.51228 31 ft 1 kts 125°
2026-04-16 10:19 -4.67011 55.51241 31 ft 4 kts 125°
2026-04-16 10:20 -4.67018 55.51272 30 ft 5 kts 85°
2026-04-16 10:20 -4.66998 55.51298 30 ft 5 kts 36°
2026-04-16 10:20 -4.66960 55.51326 29 ft 8 kts 35°
2026-04-16 10:20 -4.66910 55.51363 31 ft 8 kts 52°
2026-04-16 10:21 -4.66911 55.51411 27 ft 8 kts 113°
2026-04-16 10:21 -4.66946 55.51468 27 ft 11 kts 122°
2026-04-16 10:21 -4.66994 55.51537 27 ft 13 kts 125°
2026-04-16 10:21 -4.67052 55.51619 27 ft 15 kts 124°
2026-04-16 10:22 -4.67118 55.51715 26 ft 18 kts 124°
2026-04-16 10:22 -4.67192 55.51822 28 ft 19 kts 124°
2026-04-16 10:22 -4.67271 55.51938 28 ft 21 kts 124°
2026-04-16 10:22 -4.67356 55.52062 28 ft 23 kts 124°
2026-04-16 10:23 -4.67448 55.52196 28 ft 24 kts 124°
2026-04-16 10:23 -4.67548 55.52341 27 ft 26 kts 124°
2026-04-16 10:23 -4.67653 55.52495 26 ft 28 kts 124°
2026-04-16 10:23 -4.67767 55.52657 30 ft 29 kts 124°
2026-04-16 10:24 -4.67879 55.52825 27 ft 29 kts 123°
2026-04-16 10:24 -4.67997 55.52995 28 ft 30 kts 124°
2026-04-16 10:24 -4.68087 55.53124 28 ft 17 kts 131°
2026-04-16 10:24 -4.68200 55.53165 27 ft 16 kts 169°
2026-04-16 10:25 -4.68263 55.53189 32 ft 10 kts 135°
2026-04-16 10:25 -4.68255 55.53241 31 ft 8 kts 43°
2026-04-16 10:25 -4.68202 55.53265 27 ft 8 kts
2026-04-16 10:25 -4.68166 55.53237 27 ft 8 kts 307°
2026-04-16 10:26 -4.68150 55.53216 27 ft 4 kts 307°
2026-04-16 10:26 -4.68115 55.53169 27 ft 19 kts 307°
2026-04-16 10:26 -4.67929 55.52899 27 ft 87 kts 302°
2026-04-16 10:26 -4.67426 55.52167 30 ft 165 kts 305°
2026-04-16 10:27 -4.66740 55.51098 708 ft 192 kts 298°
2026-04-16 10:27 -4.66012 55.49997 1902 ft 187 kts 310°
2026-04-16 10:27 -4.65050 55.49157 3107 ft 186 kts 327°
2026-04-16 10:27 -4.63857 55.48600 4078 ft 200 kts 346°
2026-04-16 10:28 -4.62373 55.48461 4748 ft 230 kts 355°
2026-04-16 10:28 -4.60673 55.48300 5413 ft 262 kts 353°
2026-04-16 10:28 -4.58784 55.48020 5929 ft 281 kts 350°
2026-04-16 10:28 -4.56843 55.47678 5966 ft 282 kts 348°
2026-04-16 10:29 -4.55070 55.46922 5970 ft 280 kts 322°
2026-04-16 10:29 -4.53811 55.45492 6013 ft 283 kts 294°
2026-04-16 10:29 -4.53320 55.43624 7322 ft 274 kts 275°
2026-04-16 10:29 -4.53376 55.41685 8450 ft 284 kts 266°
2026-04-16 10:30 -4.53479 55.39692 9727 ft 289 kts 266°
2026-04-16 10:30 -4.53609 55.37630 10631 ft 308 kts 266°
2026-04-16 10:30 -4.53738 55.35390 11217 ft 336 kts 266°
2026-04-16 10:30 -4.54270 55.33045 11871 ft 355 kts 241°
2026-04-16 10:31 -4.55776 55.31086 13090 ft 359 kts 219°
2026-04-16 10:31 -4.57944 55.29825 14174 ft 366 kts 197°
2026-04-16 10:31 -4.60438 55.29403 15156 ft 373 kts 182°
2026-04-16 10:31 -4.63052 55.29414 16181 ft 379 kts 177°
2026-04-16 10:32 -4.65722 55.29511 17170 ft 386 kts 178°
2026-04-16 10:32 -4.68405 55.29458 18149 ft 393 kts 182°
2026-04-16 10:32 -4.71161 55.29272 18986 ft 400 kts 182°
2026-04-16 10:32 -4.73966 55.29136 19848 ft 406 kts 181°
2026-04-16 10:33 -4.76820 55.29057 20681 ft 413 kts 181°
2026-04-16 10:33 -4.79712 55.28962 21505 ft 419 kts 182°
2026-04-16 10:33 -4.82610 55.28837 22299 ft 425 kts 183°
2026-04-16 10:33 -4.85590 55.28710 23105 ft 432 kts 183°
2026-04-16 10:34 -4.88612 55.28599 23785 ft 438 kts 183°
2026-04-16 10:34 -4.91665 55.28488 24522 ft 440 kts 183°
2026-04-16 10:34 -4.94737 55.28372 25238 ft 444 kts 184°
2026-04-16 10:34 -4.97834 55.28248 25974 ft 447 kts 184°
2026-04-16 10:35 -5.00952 55.28369 26697 ft 452 kts 171°
2026-04-16 10:35 -5.04010 55.29196 27414 ft 460 kts 159°
2026-04-16 10:35 -5.06869 55.30686 28143 ft 468 kts 147°
2026-04-16 10:35 -5.08579 55.32019 28619 ft 474 kts 138°
2026-04-16 10:36 -5.10430 55.34023 29183 ft 481 kts 128°
2026-04-16 10:36 -5.12193 55.36910 29875 ft 490 kts 115°
2026-04-16 10:36 -5.13320 55.40156 30484 ft 498 kts 102°
2026-04-16 10:36 -5.13916 55.43593 31082 ft 503 kts 97°
2026-04-16 10:37 -5.14312 55.47100 31733 ft 508 kts 96°
2026-04-16 10:37 -5.14776 55.50630 32372 ft 512 kts 104°
2026-04-16 10:37 -5.15897 55.54028 33024 ft 516 kts 117°
2026-04-16 10:37 -5.17691 55.57150 33631 ft 519 kts 129°
2026-04-16 10:38 -5.20053 55.59828 34177 ft 520 kts 141°
2026-04-16 10:38 -5.22951 55.62000 34817 ft 517 kts 153°
2026-04-16 10:38 -5.26180 55.63551 35553 ft 512 kts 164°
2026-04-16 10:38 -5.29605 55.64459 36278 ft 506 kts 175°
2026-04-16 10:39 -5.33045 55.64968 36900 ft 506 kts 175°
2026-04-16 10:39 -5.36540 55.65466 37627 ft 506 kts 175°
2026-04-16 10:39 -5.40036 55.66003 38342 ft 506 kts 174°
2026-04-16 10:39 -5.43471 55.66552 38943 ft 505 kts 174°
2026-04-16 10:40 -5.46943 55.67087 39542 ft 503 kts 175°
2026-04-16 10:40 -5.50407 55.67606 40127 ft 502 kts 175°
2026-04-16 10:40 -5.53858 55.68133 40717 ft 501 kts 175°
2026-04-16 10:40 -5.57286 55.68663 40980 ft 508 kts 175°
2026-04-16 10:41 -5.64285 55.69739 40960 ft 502 kts 175°
2026-04-16 10:41 -5.71115 55.70786 40975 ft 497 kts 175°
2026-04-16 10:42 -5.77967 55.71838 40966 ft 497 kts 175°
2026-04-16 10:42 -5.84782 55.72884 40970 ft 498 kts 175°
2026-04-16 10:43 -5.91654 55.73940 40970 ft 498 kts 175°
2026-04-16 10:43 -5.98466 55.74986 40976 ft 498 kts 175°
2026-04-16 10:44 -6.05286 55.76034 40968 ft 498 kts 175°
2026-04-16 10:44 -6.12146 55.77089 40977 ft 498 kts 175°
2026-04-16 10:45 -6.18972 55.78138 40977 ft 498 kts 175°
2026-04-16 10:45 -6.25840 55.79195 40970 ft 498 kts 175°
2026-04-16 10:46 -6.32654 55.80243 40969 ft 497 kts 175°
2026-04-16 10:46 -6.39455 55.81290 40974 ft 496 kts 175°
2026-04-16 10:47 -6.46297 55.82343 40981 ft 496 kts 175°
2026-04-16 10:47 -6.53100 55.83390 40985 ft 497 kts 175°
2026-04-16 10:48 -6.59958 55.84446 40985 ft 498 kts 175°
2026-04-16 10:48 -6.66778 55.85497 40989 ft 498 kts 175°
2026-04-16 10:49 -6.73628 55.86552 40986 ft 498 kts 175°
2026-04-16 10:49 -6.80444 55.87603 40985 ft 498 kts 175°
2026-04-16 10:50 -6.87318 55.88663 40978 ft 498 kts 175°
2026-04-16 10:50 -6.94139 55.89715 40978 ft 498 kts 175°
2026-04-16 10:51 -7.00960 55.90767 40984 ft 498 kts 175°
2026-04-16 10:51 -7.07822 55.91826 40984 ft 498 kts 175°
2026-04-16 10:52 -7.14625 55.92876 40976 ft 497 kts 175°
2026-04-16 10:52 -7.21479 55.93934 40989 ft 498 kts 175°
2026-04-16 10:53 -7.28298 55.94988 40989 ft 497 kts 175°
2026-04-16 10:53 -7.35164 55.96048 40996 ft 497 kts 175°
2026-04-16 10:54 -7.41970 55.97100 40989 ft 498 kts 175°
2026-04-16 10:54 -7.48823 55.98160 40992 ft 497 kts 175°
2026-04-16 10:55 -7.55633 55.99213 40985 ft 497 kts 175°
2026-04-16 10:55 -7.62484 56.00272 40987 ft 498 kts 175°
2026-04-16 10:56 -7.69307 56.01328 40974 ft 498 kts 175°
2026-04-16 10:56 -7.76127 56.02384 40980 ft 498 kts 175°
2026-04-16 10:57 -7.82984 56.03446 40978 ft 497 kts 175°
2026-04-16 10:57 -7.89792 56.04500 40982 ft 497 kts 175°
2026-04-16 10:58 -7.96642 56.05562 40982 ft 497 kts 175°
2026-04-16 10:58 -8.03450 56.06617 40984 ft 498 kts 175°
2026-04-16 10:59 -8.10305 56.07680 40983 ft 497 kts 175°
2026-04-16 10:59 -8.17113 56.08736 40987 ft 497 kts 175°
2026-04-16 11:00 -8.23910 56.09791 40986 ft 496 kts 175°
2026-04-16 11:00 -8.30744 56.10851 40986 ft 496 kts 175°
2026-04-16 11:01 -8.37523 56.11904 40985 ft 495 kts 175°
2026-04-16 11:01 -8.44342 56.12963 40987 ft 495 kts 175°
2026-04-16 11:02 -8.51131 56.14018 40993 ft 496 kts 175°
2026-04-16 11:02 -8.57971 56.15081 40994 ft 496 kts 175°
2026-04-16 11:03 -8.64756 56.16136 40989 ft 495 kts 175°
2026-04-16 11:04 -8.74996 56.17730 40990 ft 496 kts 175°
2026-04-16 11:04 -8.81790 56.18791 40993 ft 496 kts 175°
2026-04-16 11:05 -8.88579 56.19841 40985 ft 496 kts 175°
2026-04-16 11:05 -8.95406 56.20908 40984 ft 496 kts 175°
2026-04-16 11:06 -8.99931 56.21612 40986 ft 496 kts 175°
2026-04-16 11:06 -9.07388 56.22774 40989 ft 497 kts 175°
2026-04-16 11:07 -9.13079 56.23662 40992 ft 498 kts 175°
2026-04-16 11:07 -9.21071 56.24908 40996 ft 499 kts 175°
2026-04-16 11:08 -9.27905 56.25974 40995 ft 498 kts 175°
2026-04-16 11:08 -9.34722 56.27038 40996 ft 497 kts 175°
2026-04-16 11:09 -9.41565 56.28107 40994 ft 497 kts 175°
2026-04-16 11:09 -9.48398 56.29175 40991 ft 503 kts 175°
2026-04-16 11:10 -9.55358 56.30264 40988 ft 506 kts 176°
2026-04-16 11:10 -9.62281 56.31344 40989 ft 506 kts 176°
2026-04-16 11:11 -9.68064 56.32250 40984 ft 505 kts 176°
2026-04-16 11:11 -9.76148 56.33514 40989 ft 505 kts 176°
2026-04-16 11:12 -9.81947 56.34422 40990 ft 506 kts 176°
2026-04-16 11:12 -9.88920 56.35514 40986 ft 506 kts 176°
2026-04-16 11:13 -9.96988 56.36778 40994 ft 507 kts 176°
2026-04-16 11:13 -10.02799 56.37487 40987 ft 503 kts 180°
2026-04-16 11:14 -10.09774 56.38120 40990 ft 505 kts 180°
2026-04-16 11:14 -10.16794 56.38735 40990 ft 505 kts 180°
2026-04-16 11:15 -10.23756 56.39354 40992 ft 505 kts 180°
2026-04-16 11:15 -10.30769 56.39975 40990 ft 505 kts 180°
2026-04-16 11:16 -10.37743 56.40593 40993 ft 504 kts 180°
2026-04-16 11:16 -10.44698 56.41210 40993 ft 504 kts 180°
2026-04-16 11:17 -10.51705 56.41832 40988 ft 505 kts 180°
2026-04-16 11:17 -10.58668 56.42450 40992 ft 505 kts 180°
2026-04-16 11:18 -10.65673 56.43072 40992 ft 505 kts 180°
2026-04-16 11:18 -10.72643 56.43692 40993 ft 506 kts 180°
2026-04-16 11:19 -10.79675 56.44317 40997 ft 506 kts 180°
2026-04-16 11:19 -10.86651 56.44937 40996 ft 506 kts 180°
2026-04-16 11:20 -10.93672 56.45562 40993 ft 506 kts 180°
2026-04-16 11:20 -11.00658 56.46184 40996 ft 506 kts 180°
2026-04-16 11:21 -11.07684 56.46809 40999 ft 506 kts 180°
2026-04-16 11:21 -11.14687 56.47434 40998 ft 507 kts 180°
2026-04-16 11:22 -11.21687 56.48058 40996 ft 507 kts 180°
2026-04-16 11:22 -11.28683 56.48682 40997 ft 506 kts 180°
2026-04-16 11:23 -11.35710 56.49309 40999 ft 506 kts 180°
2026-04-16 11:23 -11.42713 56.49934 40997 ft 507 kts 180°
2026-04-16 11:24 -11.49760 56.50564 40998 ft 507 kts 180°
2026-04-16 11:24 -11.56763 56.51190 41002 ft 508 kts 180°
2026-04-16 11:25 -11.63782 56.51817 40993 ft 509 kts 180°
2026-04-16 11:25 -11.70845 56.52449 40998 ft 509 kts 180°
2026-04-16 11:26 -11.77863 56.53078 40999 ft 509 kts 180°
2026-04-16 11:26 -11.84925 56.53710 41001 ft 509 kts 180°
2026-04-16 11:27 -11.91992 56.54343 40998 ft 509 kts 180°
2026-04-16 11:27 -11.99015 56.54973 41002 ft 508 kts 180°
2026-04-16 11:28 -12.06027 56.55602 41000 ft 508 kts 180°
2026-04-16 11:28 -12.13086 56.56235 40999 ft 509 kts 180°
2026-04-16 11:29 -12.20095 56.56865 40999 ft 508 kts 180°
2026-04-16 11:29 -12.27143 56.57498 41002 ft 508 kts 180°
2026-04-16 11:30 -12.34176 56.58130 41000 ft 507 kts 180°
2026-04-16 11:30 -12.41207 56.58762 41002 ft 508 kts 180°
2026-04-16 11:31 -12.48198 56.59391 41005 ft 507 kts 180°
2026-04-16 11:31 -12.55231 56.60025 41004 ft 508 kts 180°
2026-04-16 11:32 -12.62273 56.60659 41004 ft 509 kts 180°
2026-04-16 11:32 -12.69330 56.61295 41007 ft 509 kts 180°
2026-04-16 11:33 -12.76390 56.61932 41003 ft 510 kts 180°
2026-04-16 11:33 -12.83411 56.62565 41007 ft 510 kts 180°
2026-04-16 11:34 -12.90469 56.63203 41009 ft 509 kts 180°
2026-04-16 11:34 -12.97534 56.63841 41007 ft 509 kts 180°
2026-04-16 11:35 -13.04585 56.64478 41007 ft 508 kts 180°
2026-04-16 11:35 -13.11580 56.65111 40999 ft 508 kts 180°
2026-04-16 11:36 -13.18622 56.65748 41006 ft 508 kts 180°
2026-04-16 11:36 -13.23729 56.66210 41014 ft 508 kts 180°
2026-04-16 11:37 -13.30784 56.66849 41016 ft 509 kts 180°
2026-04-16 11:37 -13.37835 56.67489 41005 ft 509 kts 180°
2026-04-16 11:38 -13.44840 56.68124 41005 ft 508 kts 180°
2026-04-16 11:38 -13.51881 56.68763 41016 ft 508 kts 180°
2026-04-16 11:39 -13.58917 56.69401 41010 ft 507 kts 180°
2026-04-16 11:39 -13.65946 56.70040 41007 ft 507 kts 180°
2026-04-16 11:40 -13.72974 56.70679 41015 ft 507 kts 180°
2026-04-16 11:40 -13.79960 56.71314 41011 ft 507 kts 180°
2026-04-16 11:41 -13.86993 56.71954 41009 ft 507 kts 180°
2026-04-16 11:41 -13.94019 56.72594 41018 ft 507 kts 180°
2026-04-16 11:42 -14.01038 56.73234 41011 ft 506 kts 180°
2026-04-16 11:42 -14.08011 56.73870 41017 ft 506 kts 179°
2026-04-16 11:43 -14.15035 56.74510 41009 ft 507 kts 179°
2026-04-16 11:43 -14.22065 56.75152 41020 ft 507 kts 179°
2026-04-16 11:44 -14.29092 56.75794 41018 ft 507 kts 179°
2026-04-16 11:44 -14.36081 56.76433 41018 ft 507 kts 179°
2026-04-16 11:45 -14.43115 56.77076 41017 ft 508 kts 179°
2026-04-16 11:45 -14.50149 56.77720 41020 ft 507 kts 179°
2026-04-16 11:46 -14.57173 56.78363 41022 ft 507 kts 179°
2026-04-16 11:46 -14.64197 56.79007 41024 ft 507 kts 179°
2026-04-16 11:47 -14.71177 56.79647 40993 ft 508 kts 179°
2026-04-16 11:47 -14.74698 56.79970 40879 ft 508 kts 179°
2026-04-16 11:47 -14.78208 56.80293 40882 ft 505 kts 179°
2026-04-16 11:48 -14.85202 56.80934 40884 ft 505 kts 179°
2026-04-16 11:48 -14.92154 56.81573 40883 ft 505 kts 178°
2026-04-16 11:49 -14.99159 56.82217 40882 ft 505 kts 178°
2026-04-16 11:49 -15.06169 56.82862 40887 ft 505 kts 178°
2026-04-16 11:50 -15.13171 56.83505 40874 ft 505 kts 178°
2026-04-16 11:50 -15.20176 56.84149 40883 ft 505 kts 178°
2026-04-16 11:51 -15.27128 56.84789 40886 ft 504 kts 178°
2026-04-16 11:51 -15.34125 56.85433 40889 ft 503 kts 178°
2026-04-16 11:52 -15.41071 56.86073 40889 ft 503 kts 178°
2026-04-16 11:52 -15.48019 56.86714 40891 ft 503 kts 178°
2026-04-16 11:53 -15.55013 56.87359 40891 ft 504 kts 178°
2026-04-16 11:53 -15.61957 56.88000 40896 ft 504 kts 178°
2026-04-16 11:54 -15.68943 56.88646 40893 ft 503 kts 178°
2026-04-16 11:54 -15.75925 56.89291 40896 ft 503 kts 178°
2026-04-16 11:55 -15.82864 56.89933 40891 ft 504 kts 178°
2026-04-16 11:55 -15.89868 56.90582 40896 ft 504 kts 178°
2026-04-16 11:56 -15.96823 56.91226 40897 ft 504 kts 178°
2026-04-16 11:56 -16.03773 56.91871 40896 ft 504 kts 178°
2026-04-16 11:57 -16.10773 56.92520 40901 ft 505 kts 178°
2026-04-16 11:57 -16.17770 56.93170 40900 ft 504 kts 178°
2026-04-16 11:58 -16.24707 56.93814 40901 ft 503 kts 178°
2026-04-16 11:58 -16.31681 56.94463 40902 ft 502 kts 178°
2026-04-16 11:59 -16.38635 56.95109 40904 ft 502 kts 178°
2026-04-16 11:59 -16.45584 56.95757 40904 ft 501 kts 178°
2026-04-16 12:00 -16.52485 56.96399 40910 ft 501 kts 177°
2026-04-16 12:00 -16.59440 56.97048 40908 ft 502 kts 177°
2026-04-16 12:01 -16.66404 56.97698 40909 ft 501 kts 177°
2026-04-16 12:01 -16.73298 56.98342 40907 ft 500 kts 177°
2026-04-16 12:02 -16.83672 56.99311 40910 ft 501 kts 177°
2026-04-16 12:02 -16.90638 56.99963 40911 ft 501 kts 177°
2026-04-16 12:03 -16.97566 57.00611 40914 ft 502 kts 177°
2026-04-16 12:03 -17.04530 57.01264 40912 ft 502 kts 177°
2026-04-16 12:04 -17.11461 57.01914 40914 ft 502 kts 177°
2026-04-16 12:04 -17.18380 57.02563 40914 ft 502 kts 177°
2026-04-16 12:05 -17.25347 57.03217 40911 ft 501 kts 177°
2026-04-16 12:05 -17.32279 57.03869 40915 ft 500 kts 177°
2026-04-16 12:06 -17.39203 57.04520 40918 ft 500 kts 177°
2026-04-16 12:06 -17.44428 57.05012 40919 ft 500 kts 177°
2026-04-16 12:07 -17.51360 57.05664 40920 ft 500 kts 177°
2026-04-16 12:07 -17.58287 57.06317 40924 ft 500 kts 177°
2026-04-16 12:08 -17.65212 57.06970 40922 ft 500 kts 177°
2026-04-16 12:08 -17.72086 57.07619 40912 ft 499 kts 177°
2026-04-16 12:09 -17.78996 57.08272 40915 ft 498 kts 177°
2026-04-16 12:09 -17.85891 57.08924 40918 ft 497 kts 177°
2026-04-16 12:10 -17.92776 57.09575 40930 ft 497 kts 177°
2026-04-16 12:10 -17.99616 57.10218 40932 ft 497 kts 178°
2026-04-16 12:11 -18.06507 57.10723 40941 ft 496 kts 178°
2026-04-16 12:11 -18.13394 57.11284 40928 ft 497 kts 178°
2026-04-16 12:12 -18.18208 57.11664 40927 ft 497 kts 178°